Location: Mizzole
(45.4833°N, 11.0500°E)
Time: 07:15:30
(UTC+00:00)

Cosmos 1833 Rocket - Pass Details

Date: 21 October 2019
Orbit: 833 x 839 km, 71.0° (Epoch: 19 November)

Event Time Altitude Azimuth Distance (km) Brightness Sun altitude
Rises 17:26:38 0° 334° (NNW) 3,392 6.2 -12.2°
Reaches altitude 10° 17:29:05 10° 335° (NNW) 2,455 5.4 -12.7°
Maximum altitude 17:34:44 84° 63° (ENE) 847 2.6 -13.6°
Drops below altitude 10° 17:40:21 10° 153° (SSE) 2,443 4.8 -14.6°
Sets 17:42:47 0° 154° (SSE) 3,374 5.6 -15.1°
